• MPC Preparation (Info)

  • MPEC 2012-F94 : 2012 FZ44

    The following Minor Planet Electronic Circular may be linked-to from your own Web pages, but must not otherwise be redistributed electronically.

    A form allowing access to any MPEC is at the bottom of this page.


    Read MPEC 2012-F93 Read MPEC 2012-F95


    M.P.E.C. 2012-F94                                Issued 2012 Mar. 27, 22:21 UT
    
         The Minor Planet Electronic Circulars contain information on unusual
             minor planets and routine data on comets.  They are published
       on behalf of Commission 20 of the International Astronomical Union by the
              Minor Planet Center, Smithsonian Astrophysical Observatory,
                              Cambridge, MA 02138, U.S.A.
    
                 Prepared using the Tamkin Foundation Computer Network
    
                                  MPC@CFA.HARVARD.EDU
                URL https://www.minorplanetcenter.net/    ISSN 1523-6714
    
                                       2012 FZ44
    
    Observations:
         K12F44Z* C2012 03 25.25638 11 27 28.80 -11 08 47.6          20.4 VrEF094G96
         K12F44Z  C2012 03 25.26510 11 27 26.96 -11 08 53.0          20.2 VrEF094G96
         K12F44Z  C2012 03 25.27384 11 27 25.12 -11 08 58.4          20.2 VrEF094G96
         K12F44Z  C2012 03 25.28251 11 27 23.32 -11 09 03.6          20.3 VrEF094G96
         K12F44Z KC2012 03 26.22538011 24 09.92 -11 18 37.7          20.0 VrEF094H21
         K12F44Z KC2012 03 26.23009811 24 08.91 -11 18 41.0          19.8 VrEF094H21
         K12F44Z KC2012 03 26.23529211 24 07.84 -11 18 44.0          20.2 VrEF094H21
         K12F44Z  C2012 03 26.35589 11 23 42.32 -11 19 54.9          20.1 VrEF094G96
         K12F44Z  C2012 03 26.36056 11 23 41.35 -11 19 56.7          20.6 VrEF094G96
         K12F44Z  C2012 03 26.36519 11 23 40.34 -11 20 00.4          20.0 VrEF094G96
         K12F44Z  C2012 03 26.36984 11 23 39.33 -11 20 03.0          20.1 VrEF094G96
         K12F44Z IC2012 03 26.91874 11 21 45.11 -11 25 37.1                tEF094204
         K12F44Z KC2012 03 26.94194 11 21 40.11 -11 25 51.8          19.7 RtEF094204
         K12F44Z KC2012 03 27.20876111 20 43.63 -11 28 31.2          20.1 VrEF094H21
         K12F44Z KC2012 03 27.21332411 20 42.57 -11 28 33.1          19.9 VrEF094H21
         K12F44Z KC2012 03 27.21861611 20 41.44 -11 28 37.1          19.9 VrEF094H21
         K12F44Z  C2012 03 27.27631 11 20 29.22 -11 29 10.1          20.3 VrEF094G96
         K12F44Z  C2012 03 27.27933 11 20 28.50 -11 29 11.9          20.4 VrEF094G96
         K12F44Z  C2012 03 27.28235 11 20 27.88 -11 29 13.8          20.5 VrEF094G96
         K12F44Z  C2012 03 27.28537 11 20 27.20 -11 29 15.5          20.1 VrEF094G96
         K12F44Z KC2012 03 27.84304 11 18 28.46 -11 34 52.4          19.7 RuEF094B04
         K12F44Z KC2012 03 27.84611 11 18 27.78 -11 34 54.4          20.2 RuEF094B04
         K12F44Z KC2012 03 27.85691 11 18 25.44 -11 35 00.9          19.6 RuEF094B04
         K12F44Z KC2012 03 27.87203 11 18 22.03 -11 35 09.9          19.8 RuEF094104
         K12F44Z KC2012 03 27.88423 11 18 19.35 -11 35 17.6          19.6 RuEF094104
    
    Observer details:
    104 San Marcello Pistoiese.  Observer P. Bacci.  Measurers P. Bacci, L. Tesi,
        G. Fagioli.  0.60-m f/4 reflector + CCD.
    204 Schiaparelli Observatory.  Observer L. Buzzi.  0.38-m f/6.8 reflector
        + CCD.
    B04 OAVdA, Saint-Barthelemy.  Observer A. Carbognani.  0.81-m f/7.9 reflector
        + CCD.
    G96 Mt. Lemmon Survey.  Observer R. A. Kowalski.  Measurers J. D. Ahern,
        E. C. Beshore, A. Boattini, A. R. Gibbs, A. D. Grauer, R. E. Hill,
        R. A. Kowalski, S. M. Larson, R. H. McNaught.  1.5-m reflector + CCD.
    H21 Astronomical Research Observatory, Westfield.  Observer R. Holmes.
        Measurers L. Buzzi, H. Devore, S. Foglia, T. Vorobjov.  0.61-m f/4.0
        astrograph + CCD.
    
    Orbital elements:
    2012 FZ44                                                Earth MOID = 0.0761 AU
    Epoch 2012 Mar. 14.0 TT = JDT 2456000.5                 MPC
    M 311.55648              (2000.0)            P               Q
    n   0.45022245     Peri.  309.09933     +0.39087619     +0.91838229
    a   1.6859756      Node   343.58229     -0.76289126     +0.28582409
    e   0.5590852      Incl.   12.58039     -0.51498809     +0.27363947
    P   2.19           H   20.5           G   0.15           U   9
    Residuals in seconds of arc
    120325 G96  0.2+  0.0     120326 G96  0.2-  0.2-    120327 G96  0.2+  0.1-
    120325 G96  0.0   0.0     120326 G96  0.4-  0.1-    120327 G96  0.0   0.0
    120325 G96  0.1-  0.1-    120326 204  0.0   0.8+    120327 B04  0.4-  0.0
    120325 G96  0.2+  0.0     120326 204  0.5+  0.1+    120327 B04  0.4-  0.1-
    120326 H21  0.3-  0.1+    120327 H21  0.6+  0.0     120327 B04  0.3+  0.0
    120326 H21  0.3-  0.4-    120327 H21  0.3-  0.8+    120327 104  0.1-  0.2-
    120326 H21  0.4+  0.3-    120327 H21  0.2+  0.0     120327 104  0.3+  0.5-
    120326 G96  0.4-  0.3-    120327 G96  0.3+  0.0
    120326 G96  0.1+  0.7+    120327 G96  0.5-  0.0
    
    Ephemeris:
    2012 FZ44                a,e,i = 1.69, 0.56, 13                  q = 0.7434
    Date    TT    R. A. (2000) Decl.     Delta      r     Elong.  Phase     V
    2012 02 26    12 26 15.0 -06 25 13   0.7305  1.6550   147.9    18.5    21.9
    ...
    2012 03 12    12 03 58.9 -08 52 23   0.5567  1.5382   165.1     9.6    20.8
    ...
    2012 03 20    11 43 57.4 -10 14 40   0.4832  1.4731   169.0     7.4    20.3
    ...
    2012 03 26    11 24 56.8 -11 16 05   0.4380  1.4231   163.5    11.5    20.2
    2012 03 27    11 21 28.0 -11 26 09   0.4313  1.4146   162.1    12.5    20.2
    2012 03 28    11 17 54.2 -11 36 09   0.4249  1.4062   160.7    13.6    20.2
    ...
    2012 04 03    10 54 59.4 -12 34 01   0.3911  1.3548   150.8    21.1    20.2
    ...
    2012 04 11    10 21 34.2 -13 43 11   0.3584  1.2851   136.2    32.7    20.2
    ...
    2012 04 26    09 18 02.4 -15 25 44   0.3253  1.1518   108.5    55.9    20.4
    
    A. U. Tomatic                (C) Copyright 2012 MPC           M.P.E.C. 2012-F94
    

    Read MPEC 2012-F93 Read MPEC 2012-F95


    MPEC number:

    Enter an MPEC number in one of the following forms:

    • 1997-B01 (the full form)
    • J97B01 (the packed version of the full form)
    • B01 (the abbreviated form)